Wind_Speed
15 11 10 12 13 14 15 16 17 13 10 12 12 12 11 9 8 6 6 5 4 4 9 12 14 15 14 12 14 17 13 11 13 14 16 16 14 15 15 17 21 23 22 21 22 23 24 23 22 24 25 26 27 27 26 25 24 26 27 28 30 30 30 31 31 30 30 30 29 29 29 28 28 27 26 25 23 20 18 18 20 21 21 21 20 18
12 12 14 16 17 18 18 17 18 15 11 12 13 12 11 11 9 5 4 6 6 4 8 11 15 16 15 14 14 16 14 13 15 16 17 18 17 17 17 18 20 20 21 22 24 24 24 24 23 24 25 26 28 29 30 30 29 29 29 30 32 32 32 33 33 33 32 32 32 31 31 31 30 29 28 27 25 24 23 21 22 21 20 21 21 19
10 12 15 19 19 18 18 18 18 16 13 12 10 9 8 9 8 5 5 8 6 4 6 9 12 14 15 16 16 17 16 16 17 18 18 18 17 17 17 18 18 17 19 22 25 26 25 24 24 25 26 26 27 28 30 33 33 33 33 34 35 35 35 35 35 35 34 34 33 33 32 31 31 29 29 28 26 25 24 22 22 22 21 20 20 19
9 11 16 20 19 18 18 18 17 14 11 11 9 8 8 8 7 6 6 8 7 5 6 9 10 12 14 15 16 20 23 21 19 19 19 19 18 19 19 17 16 18 21 22 23 25 25 25 26 26 27 27 28 29 30 33 35 36 36 37 37 37 37 37 36 35 35 34 33 32 32 31 30 29 28 27 25 24 23 22 22 22 21 21 20 20
6 7 17 19 16 18 17 17 17 12 10 10 11 10 9 9 9 6 2 5 6 8 8 9 9 10 12 15 15 18 23 24 24 23 22 22 21 21 20 17 18 21 23 23 23 24 25 27 27 27 27 27 28 30 30 32 34 36 37 38 38 38 38 38 37 35 34 34 33 32 32 31 30 28 26 25 25 24 24 24 23 22 21 22 21 21
7 13 21 19 14 16 16 15 18 14 10 10 9 11 10 10 9 7 3 2 4 6 6 6 7 6 6 12 13 11 15 21 24 24 23 22 21 23 23 22 24 26 25 25 25 24 25 26 27 27 27 28 30 31 31 32 33 34 36 37 38 38 38 38 38 36 35 35 35 34 34 35 33 30 30 29 28 26 25 26 25 24 23 23 23 23
6 16 21 17 15 16 15 15 17 15 11 9 7 10 13 11 8 7 5 3 4 5 2 5 7 6 5 8 9 9 11 17 21 20 21 22 20 21 25 27 30 30 28 28 27 26 26 27 27 27 28 29 32 33 33 32 33 34 35 36 37 38 38 39 39 38 37 37 37 37 37 38 37 36 35 33 31 30 28 28 28 27 26 25 25 24
9 17 18 18 17 14 14 14 14 15 11 7 6 8 12 11 9 7 5 5 5 6 3 6 8 8 8 8 7 9 11 13 17 17 17 21 22 21 23 29 32 31 30 29 28 29 30 30 30 30 29 29 29 32 34 34 35 35 35 35 36 37 38 39 39 39 39 39 39 39 39 39 39 38 37 35 34 33 31 30 29 28 26 27 27 25
12 17 16 18 16 11 13 13 12 15 11 4 6 6 9 9 8 7 7 6 3 4 6 8 6 6 8 5 4 9 12 12 14 15 14 17 21 22 22 27 32 32 31 30 29 30 31 32 32 31 30 28 27 30 34 35 35 36 36 35 35 36 37 38 38 39 40 40 40 40 41 41 41 39 38 36 35 35 33 30 27 26 24 25 25 25
10 18 20 18 13 11 13 12 12 15 11 5 6 5 5 6 5 4 6 4 1 4 8 7 6 6 8 6 6 7 9 11 11 12 13 16 21 22 22 27 32 33 33 32 31 30 30 30 31 30 30 29 27 30 34 34 35 36 36 36 37 37 37 37 37 38 39 40 41 41 41 41 41 40 38 37 36 35 34 31 27 26 25 25 24 25
5 14 19 13 10 12 14 12 13 14 11 11 8 7 5 3 2 1 3 1 2 7 6 8 10 8 7 5 6 7 7 9 9 9 12 16 20 21 23 27 31 32 34 34 33 31 30 29 30 30 31 30 29 29 33 35 35 36 36 36 37 37 37 38 37 37 38 40 41 42 41 41 41 39 39 39 38 36 35 33 30 27 27 28 27 27
7 9 10 6 9 14 13 8 6 7 13 12 7 8 6 2 2 1 3 3 6 6 1 4 9 9 9 4 2 5 5 6 8 9 10 13 18 19 22 27 29 29 30 33 34 33 32 31 31 31 31 31 31 31 33 35 37 37 37 37 37 37 38 38 38 38 38 39 41 42 42 42 40 38 38 39 39 38 37 36 32 29 29 31 29 28
8 7 7 6 7 15 14 8 5 5 9 8 7 9 6 4 4 4 5 4 7 5 2 1 4 7 11 8 7 11 10 9 10 11 12 13 16 18 19 25 30 30 28 29 32 32 31 32 32 33 33 33 34 34 33 35 37 38 38 38 38 39 39 39 39 39 39 40 41 42 43 43 40 38 37 37 37 38 39 38 36 33 34 35 32 29
7 3 6 8 7 17 18 10 6 6 8 9 9 10 7 6 6 6 6 4 6 4 5 5 3 7 9 6 10 13 10 11 13 15 17 17 17 17 15 17 24 28 29 29 30 30 29 30 30 33 34 35 36 35 35 36 37 39 40 40 40 40 40 40 41 41 41 42 42 42 43 43 41 39 37 36 35 36 39 40 39 38 37 37 34 31
8 1 8 11 7 17 20 13 10 8 8 9 7 7 8 6 6 6 5 6 6 2 6 8 4 5 4 2 1 4 4 7 11 14 16 16 19 22 21 19 19 22 26 28 30 31 31 31 31 31 33 36 37 37 38 38 38 39 40 41 41 41 41 41 41 42 42 43 43 43 43 43 42 40 38 37 35 36 38 39 39 40 40 37 34 32
8 2 9 9 3 16 20 10 10 12 7 4 3 6 7 5 5 4 1 3 3 1 4 7 4 5 3 4 6 7 6 7 9 13 14 16 20 22 24 26 25 23 23 24 26 28 29 31 32 32 32 33 34 34 36 38 38 40 40 41 42 41 41 41 41 42 42 43 44 44 44 43 42 40 39 39 38 38 38 38 39 40 40 37 34 33
9 5 8 8 6 17 19 13 16 15 8 4 4 6 3 1 3 5 2 2 1 5 5 6 6 7 6 9 10 12 13 11 9 10 12 16 19 18 19 24 26 26 25 25 26 25 25 27 29 30 30 30 30 29 30 31 34 37 39 41 43 43 43 43 42 42 42 42 43 44 44 44 43 43 41 40 40 39 38 38 39 39 39 36 34 32
8 5 2 5 10 11 9 15 20 12 7 7 7 7 5 3 3 4 4 3 3 7 6 7 9 8 6 6 3 8 13 11 9 9 9 12 14 14 19 24 25 26 27 28 29 29 27 25 25 25 25 26 26 26 26 26 27 30 34 38 41 44 46 46 45 43 43 43 43 43 43 44 44 43 42 41 41 39 38 39 39 39 39 36 33 32
9 7 3 1 5 5 2 11 14 3 2 3 6 9 7 3 5 6 5 5 7 7 5 7 10 8 8 7 3 6 8 7 7 9 9 10 11 12 17 21 20 20 21 23 26 29 29 29 27 26 25 25 25 25 25 25 25 27 30 33 37 41 45 47 46 45 44 43 42 42 42 42 42 42 42 41 41 40 38 39 39 38 37 34 33 33
8 6 3 1 1 4 3 6 10 5 1 1 3 9 7 5 5 7 6 3 4 6 5 5 7 7 8 10 10 12 10 7 9 8 8 11 12 11 10 12 14 15 15 16 19 23 27 29 29 29 29 28 26 25 26 26 27 27 29 31 34 38 42 45 46 46 46 44 42 41 40 40 39 40 41 41 41 40 39 39 39 37 35 34 34 35
7 4 6 3 1 4 5 5 10 11 8 4 6 10 9 4 1 3 5 4 3 5 5 6 7 6 3 6 9 12 11 11 11 9 7 8 7 6 5 7 10 10 9 10 12 16 19 22 24 25 27 28 29 28 28 29 31 30 30 31 32 35 39 42 44 46 45 43 41 40 39 37 37 37 38 39 40 40 40 39 38 36 34 34 35 34
6 5 8 7 4 5 3 1 4 8 10 9 7 8 9 7 4 3 6 6 4 5 5 5 8 6 3 4 5 7 8 9 9 8 7 6 3 3 5 6 7 9 10 11 13 15 17 18 19 20 21 24 27 30 31 32 32 31 31 31 31 31 33 37 41 42 42 41 40 39 37 36 36 36 36 38 39 39 39 39 37 36 34 34 34 33
5 6 8 8 5 3 2 3 3 1 5 9 6 7 9 7 7 8 7 6 6 7 5 4 8 5 5 6 4 5 4 3 2 5 7 6 4 3 6 8 9 12 13 14 15 16 17 18 18 18 18 19 21 25 28 29 29 29 29 29 28 27 28 31 34 37 37 38 38 38 38 38 37 36 36 37 37 38 38 38 38 36 35 34 33 32
6 6 8 7 3 3 4 3 3 5 1 7 8 9 11 11 11 8 3 2 5 7 6 4 9 5 5 6 4 4 3 1 3 7 8 6 4 5 9 8 7 8 8 8 10 10 12 14 16 17 16 16 17 19 22 24 24 25 25 25 24 23 24 27 29 32 33 34 36 36 36 37 36 36 37 37 37 37 37 38 38 36 35 34 32 31
6 6 8 8 5 2 2 2 3 2 5 8 10 12 14 16 15 6 1 1 4 7 9 7 10 7 3 4 3 3 3 3 7 8 7 5 4 6 8 5 2 2 4 6 8 10 10 10 11 12 13 14 15 16 18 19 20 20 20 20 21 21 22 24 26 27 28 29 30 31 31 32 33 34 35 35 36 36 36 37 36 35 35 33 32 31
6 7 7 8 9 8 7 7 6 6 6 7 10 14 16 17 17 9 3 4 6 7 9 8 10 8 2 4 3 4 5 7 8 6 4 7 8 7 5 2 3 5 7 9 11 12 12 12 11 10 10 11 13 14 15 16 17 17 18 19 19 19 20 21 22 23 24 25 26 27 28 30 31 32 32 32 33 33 34 35 34 34 33 32 31 31
4 6 7 9 12 8 4 5 7 8 7 7 10 12 11 11 12 9 5 8 10 7 7 10 15 13 6 6 7 7 9 10 7 5 5 7 8 7 6 5 5 6 7 9 10 11 12 13 13 11 10 10 11 12 13 14 15 16 16 17 18 18 19 19 21 22 23 25 26 27 28 29 30 31 31 31 31 31 32 32 32 32 30 30 29 29
3 7 10 12 14 9 6 10 12 14 13 13 15 14 13 12 11 9 9 14 14 8 10 16 19 20 17 10 8 8 10 9 6 5 6 6 6 8 7 4 2 1 3 6 9 10 12 13 13 13 12 10 10 11 12 13 14 15 16 17 17 18 19 20 21 23 24 25 26 26 27 28 29 30 31 31 31 31 31 31 31 30 29 28 28 28
4 8 12 11 10 8 10 14 15 15 15 15 18 19 18 19 19 17 17 20 18 12 14 17 16 19 21 13 10 10 9 9 7 7 7 6 7 8 7 6 7 7 7 6 8 10 11 12 13 14 14 12 11 10 11 12 13 14 15 16 17 19 20 20 21 22 23 24 24 24 25 26 27 29 30 31 31 31 31 31 30 29 28 28 28 27
5 7 10 11 8 6 9 14 16 16 14 14 18 20 19 20 22 21 21 24 20 17 20 19 14 18 18 9 8 11 13 11 6 6 7 8 9 9 11 13 14 15 15 13 11 10 10 11 12 14 15 14 13 12 11 11 12 13 15 16 17 18 18 18 19 20 20 21 21 21 22 23 25 26 27 28 29 29 30 30 29 29 28 28 29 29
8 7 10 11 6 3 5 11 15 16 14 14 17 19 20 20 21 23 23 21 17 18 25 21 14 17 13 5 7 12 13 11 5 5 8 11 13 17 20 23 25 24 23 21 18 17 16 14 13 13 15 15 15 15 14 13 13 13 14 15 16 16 16 16 18 18 18 18 18 19 20 21 22 23 24 24 25 25 26 26 26 27 27 28 29 31
7 7 10 11 7 4 5 10 14 12 10 10 13 17 22 22 21 22 21 17 15 19 22 16 13 15 8 3 7 12 12 12 10 9 13 15 18 21 22 25 28 28 28 27 26 24 23 20 18 16 15 16 17 18 19 18 17 16 15 15 15 15 15 16 17 18 17 16 16 17 17 18 19 20 20 20 20 18 19 21 22 23 24 26 28 28
9 7 8 10 8 6 7 10 11 9 5 6 12 20 26 25 21 17 15 17 19 18 14 11 14 14 3 5 5 8 8 11 13 16 19 21 22 24 25 27 27 29 31 31 30 27 23 23 23 22 20 19 19 21 22 21 21 20 18 17 16 16 17 18 18 18 17 16 15 15 16 17 18 17 16 17 18 17 16 18 21 23 24 26 26 25
13 9 7 9 6 5 9 9 8 6 7 10 11 18 24 23 21 18 16 20 21 17 15 15 16 11 4 5 5 6 9 13 16 19 22 23 24 26 31 32 29 29 31 30 29 27 26 26 25 25 24 21 21 22 24 23 23 22 20 19 19 19 20 20 19 18 17 16 16 15 15 16 16 16 15 16 19 20 19 20 21 22 24 24 25 24
14 10 7 6 4 6 8 9 7 10 13 7 5 13 20 20 21 20 19 20 22 22 23 23 20 14 9 8 8 8 11 14 16 21 23 23 26 28 29 30 27 28 30 30 30 30 29 26 23 22 22 21 20 22 23 23 22 21 21 22 21 21 21 21 21 19 18 18 16 16 15 15 16 16 16 16 18 20 21 22 23 22 22 23 24 25
13 10 6 4 4 6 7 8 9 9 7 3 2 9 15 16 18 18 17 20 24 25 22 23 24 20 14 16 15 13 14 15 19 26 28 26 29 31 30 28 26 26 28 28 29 30 29 27 23 21 21 21 21 21 21 20 19 19 20 21 22 22 21 21 21 20 19 19 17 16 15 15 16 17 17 18 20 21 22 23 24 24 24 24 24 26
11 9 6 4 3 5 7 8 8 4 3 7 9 11 16 15 17 18 14 16 20 22 20 21 22 18 15 20 22 19 17 14 15 25 33 36 37 37 34 32 30 31 31 30 30 31 31 29 26 24 24 23 22 20 19 18 17 18 19 20 20 21 21 22 21 20 19 19 18 17 16 16 17 17 18 19 21 22 23 22 23 24 24 24 25 26
8 8 7 7 4 4 7 7 6 6 9 13 15 17 18 14 13 13 8 11 14 20 23 21 18 16 15 17 21 19 13 9 9 15 26 35 38 35 33 34 34 35 35 34 33 33 33 33 32 30 28 25 23 21 21 19 18 18 19 19 19 19 20 21 21 20 20 19 19 18 17 16 16 17 19 19 20 23 24 24 24 24 24 25 26 27
7 5 6 7 4 4 8 6 6 10 11 8 9 15 17 16 15 13 5 11 10 18 25 22 17 16 15 17 22 16 7 8 11 7 9 16 19 18 21 25 26 27 30 32 32 32 32 33 34 32 29 25 22 22 22 20 19 19 19 18 18 18 19 20 20 20 20 19 19 19 18 16 16 17 18 19 20 22 23 23 24 25 26 27 28 29
8 5 6 8 7 9 10 7 6 7 8 4 10 15 21 25 22 13 6 10 9 20 29 26 19 19 24 27 25 13 8 13 11 1 3 7 10 10 13 15 16 19 21 22 23 24 25 26 28 29 27 24 24 24 24 22 21 21 20 19 19 18 18 18 18 19 19 19 19 18 17 16 16 16 16 17 19 22 24 25 25 26 28 30 31 33
6 5 7 7 7 10 11 10 7 5 4 7 10 17 27 27 18 11 8 5 9 18 28 31 28 29 32 29 20 13 18 29 24 12 11 15 14 13 14 12 12 14 15 16 18 20 21 22 23 24 23 23 24 25 25 24 22 22 21 20 19 19 17 17 17 17 18 17 17 16 16 16 16 15 15 15 17 20 23 25 27 29 30 31 32 33
6 6 7 6 7 9 8 7 7 6 6 13 13 20 29 20 8 8 5 7 11 13 17 25 29 29 27 24 21 22 29 35 30 24 25 24 20 17 15 14 14 14 15 17 17 18 18 18 17 17 19 20 22 24 25 25 23 22 21 19 19 18 17 17 17 16 17 17 16 16 15 16 16 15 15 15 16 18 19 21 23 24 25 27 27 28
8 9 9 7 8 9 8 8 8 9 10 22 18 14 16 8 4 10 11 9 14 17 17 21 24 24 24 22 23 26 28 27 23 22 24 24 22 20 19 18 17 16 14 13 12 12 12 11 11 13 15 17 20 22 23 22 20 19 18 17 17 17 16 16 16 15 15 15 15 14 14 14 14 14 14 14 15 16 17 18 18 19 20 21 22 23
8 9 8 7 9 11 10 12 7 4 11 28 21 9 8 4 10 21 17 10 15 19 20 20 19 19 20 19 19 20 21 20 19 19 19 20 20 20 19 17 14 11 10 8 7 8 9 9 11 13 14 16 17 18 18 17 16 15 15 14 14 13 13 12 12 12 11 11 11 11 11 11 12 12 13 13 14 15 16 17 17 18 19 20 21 22
14 13 5 3 10 10 5 5 3 2 19 34 25 18 21 16 12 20 19 17 20 20 18 18 16 14 15 14 14 15 16 18 19 18 17 17 17 16 14 12 12 11 8 7 8 9 10 10 11 12 12 13 13 13 13 12 12 12 12 11 10 9 9 9 9 8 8 8 8 8 8 8 9 10 11 12 13 14 15 16 17 18 19 19 21 23
12 13 4 1 5 8 3 3 2 4 20 29 21 24 35 27 15 18 20 20 21 18 16 16 14 11 12 12 12 14 15 17 17 17 16 16 14 14 14 14 15 12 8 8 9 9 9 9 9 10 10 10 10 10 10 10 10 10 10 9 9 9 9 9 8 8 7 7 6 6 6 6 7 8 9 10 11 12 14 15 16 17 18 19 21 22
6 13 10 3 5 9 8 7 7 8 17 22 16 20 31 27 18 20 22 19 19 17 15 13 11 10 11 12 13 15 14 13 14 15 15 15 14 14 15 16 16 14 11 10 10 9 8 8 8 8 8 8 9 9 9 10 10 11 11 11 12 11 11 10 9 8 7 7 6 5 5 5 6 6 7 8 10 11 12 13 15 16 17 18 20 21
7 11 10 8 8 7 4 5 11 15 22 24 18 19 26 27 21 21 22 22 20 17 14 11 10 11 13 14 14 15 14 14 16 17 16 16 14 14 15 15 15 14 13 12 11 9 8 7 7 8 8 9 9 10 11 12 13 13 13 13 12 11 10 9 8 7 7 6 5 5 5 6 6 7 7 8 9 10 11 12 13 15 16 16 17 18
9 10 11 10 8 5 3 3 10 13 15 20 20 20 26 31 28 24 23 23 20 17 14 12 12 13 14 15 16 16 16 17 19 18 18 17 15 14 14 14 14 15 14 13 11 9 8 8 9 9 10 11 12 13 14 14 14 13 12 11 10 10 9 9 8 8 7 7 7 7 7 7 8 8 8 9 10 10 11 11 12 13 14 14 15 17
11 11 11 9 10 11 9 9 14 10 5 13 21 21 24 30 32 29 26 24 20 18 16 14 15 16 17 18 18 18 19 20 20 19 18 17 16 15 15 15 16 17 15 14 12 11 11 11 11 12 13 13 14 15 14 14 13 12 11 11 10 10 9 9 9 9 8 8 8 8 9 9 9 9 10 10 10 11 11 11 11 13 14 14 15 17
15 14 12 12 12 9 8 19 24 14 5 15 30 32 28 30 34 34 32 29 25 21 17 17 18 20 21 21 20 20 21 21 21 20 20 18 18 18 17 18 18 18 17 15 14 13 12 12 13 14 14 14 15 14 14 13 12 12 11 11 10 10 10 10 9 9 10 9 9 10 10 9 10 10 10 10 11 11 11 11 12 12 13 14 14 16
Wind_Direction
172 174 192 198 189 185 188 197 210 225 223 205 212 223 224 228 225 210 195 154 140 246 257 253 259 263 263 259 252 251 234 219 241 247 246 246 237 228 220 223 232 233 234 237 236 238 242 239 236 232 227 228 227 225 224 220 217 218 219 223 225 224 225 227 228 228 227 226 227 228 230 233 234 235 235 235 236 233 231 232 235 236 239 241 240 239
182 196 203 198 190 184 188 199 210 218 216 211 221 225 227 238 238 220 178 152 151 222 257 255 260 261 259 261 257 252 240 227 236 242 244 245 241 234 225 226 233 234 233 237 237 236 240 241 237 234 230 228 228 226 226 226 226 224 223 225 228 229 229 230 231 232 231 230 230 231 233 235 238 239 240 240 242 243 242 238 237 239 240 243 244 243
195 212 204 193 193 190 191 199 206 212 213 216 224 224 230 235 239 241 180 159 163 210 259 261 262 263 260 258 254 250 247 243 238 238 243 244 244 239 230 227 224 225 233 237 238 238 239 240 239 236 234 231 230 229 227 227 228 228 227 228 229 231 232 233 234 234 234 233 233 235 236 238 241 244 246 247 247 248 248 243 240 240 239 241 246 246
196 209 194 188 192 194 196 200 202 207 212 218 222 220 231 230 236 246 183 169 184 209 261 279 274 269 265 260 252 244 244 248 243 237 239 238 240 241 237 232 220 221 234 237 236 238 239 239 238 237 236 234 232 231 229 228 228 229 230 230 231 232 234 235 235 235 236 235 235 236 239 241 243 246 248 249 247 246 244 241 240 239 239 242 245 245
187 173 177 183 189 193 198 198 198 205 210 215 221 221 230 231 234 249 180 168 208 226 241 265 279 271 254 248 246 236 231 239 244 238 235 231 231 237 237 234 228 227 234 237 236 236 236 236 236 237 237 238 236 234 231 229 229 230 231 232 232 233 234 236 237 235 235 236 235 235 236 238 240 240 241 241 241 240 238 239 240 238 238 242 243 242
190 161 172 181 181 190 198 197 198 203 210 215 220 223 235 245 238 238 231 214 264 255 213 217 267 275 240 239 243 235 221 227 235 233 228 226 224 228 232 233 236 237 237 238 235 234 236 235 235 237 237 238 238 237 235 233 232 233 233 234 235 235 236 237 238 237 236 237 237 236 235 235 235 234 234 234 234 235 234 234 235 233 234 239 240 242
185 169 173 176 175 189 197 198 197 195 213 225 200 203 226 243 242 233 236 231 267 291 154 184 253 282 286 266 254 248 235 226 228 225 220 220 220 222 230 236 240 243 242 241 236 232 236 237 234 237 239 238 238 238 238 236 235 236 235 235 236 238 238 238 239 239 238 238 240 240 239 239 239 238 239 239 237 236 235 234 235 233 231 233 235 241
161 172 176 173 177 189 195 202 196 189 216 224 158 182 214 226 232 230 238 241 262 311 299 216 237 274 283 274 248 238 245 239 230 223 215 216 219 217 224 236 242 244 243 242 239 235 237 240 239 241 244 245 243 238 237 237 237 237 237 236 236 238 239 240 240 241 240 239 240 241 242 243 243 243 245 246 245 244 241 239 239 237 234 234 235 239
158 174 174 172 181 190 197 205 185 184 214 200 136 188 209 213 231 238 240 249 295 326 274 234 219 254 267 260 217 219 233 241 235 231 226 220 221 217 217 231 240 243 243 242 241 239 239 241 244 246 246 249 248 239 235 236 237 237 237 237 237 237 239 240 240 241 242 242 241 241 242 243 245 245 246 247 248 248 244 241 241 239 237 237 237 236
163 177 175 175 187 192 197 199 176 189 210 150 138 179 189 206 231 247 240 243 341 276 257 239 215 246 274 260 227 221 227 236 236 234 235 229 226 219 213 226 237 240 240 240 240 240 240 242 245 246 245 246 247 240 235 235 237 237 237 237 237 238 239 240 240 240 241 243 243 242 242 243 244 245 245 245 246 246 244 240 238 237 237 236 233 231
132 168 176 182 192 191 192 188 181 193 177 129 136 147 128 167 173 209 232 180 258 254 245 225 220 242 281 256 218 228 227 224 228 230 234 233 230 220 211 223 235 237 237 238 239 240 240 242 243 244 242 240 241 239 234 234 236 236 236 236 236 237 239 240 241 240 240 242 243 244 243 243 244 244 244 244 243 242 242 240 235 233 235 235 232 232
119 155 172 169 187 185 177 166 149 156 147 132 144 146 122 121 125 161 195 176 233 244 251 209 209 222 246 240 193 241 239 226 232 234 236 236 236 228 215 221 233 236 236 236 237 238 238 239 241 241 240 236 236 236 234 234 235 236 236 236 236 237 238 239 240 241 241 241 242 243 244 243 243 243 243 243 243 241 241 241 237 230 230 235 235 234
143 161 149 127 184 179 156 130 97 124 151 152 160 158 152 152 160 199 191 199 236 222 102 155 192 223 244 250 250 253 252 247 241 237 243 246 247 242 226 226 234 236 234 233 234 235 235 236 238 240 240 237 235 235 235 234 234 236 236 236 236 237 238 239 240 240 240 241 241 241 243 243 241 241 240 241 242 241 241 242 240 235 234 239 240 237
148 173 157 146 182 177 163 155 163 173 178 176 169 171 179 165 178 208 193 216 248 207 163 157 171 252 264 264 247 249 254 253 245 241 249 253 250 253 245 232 231 230 230 231 233 235 234 235 237 239 241 241 239 237 237 236 234 235 236 236 237 237 238 239 240 241 240 241 242 241 243 243 241 239 238 239 239 240 242 243 243 242 242 245 245 241
159 183 178 172 173 180 184 187 171 149 157 179 178 184 194 178 189 208 196 215 233 192 163 162 167 247 261 23 290 259 261 258 256 251 255 255 247 250 256 251 239 233 233 234 236 237 237 239 240 240 242 243 243 241 239 239 237 236 236 236 236 237 237 239 239 241 241 242 242 242 243 243 242 240 238 239 238 240 243 244 244 245 246 247 245 242
175 169 169 176 182 184 189 181 140 127 136 187 189 197 212 212 212 219 234 217 210 198 178 185 228 261 276 319 290 266 248 226 237 249 251 252 247 248 255 259 256 248 243 242 243 243 243 244 243 243 244 245 246 245 243 242 241 240 239 238 238 238 238 239 240 241 242 242 242 242 242 242 242 240 239 239 240 241 244 245 245 246 248 247 242 241
183 158 153 170 190 188 184 160 145 146 150 169 200 205 196 336 246 222 198 76 63 271 232 191 237 264 280 283 258 245 248 227 208 226 239 245 248 248 252 257 258 256 256 258 259 258 254 252 250 249 250 251 251 251 249 247 246 244 243 242 240 239 238 239 240 241 242 241 241 241 242 242 242 241 241 241 242 244 244 245 247 247 247 246 241 240
161 114 94 176 176 182 176 157 160 161 145 155 194 190 126 42 302 239 221 192 200 254 243 200 232 250 254 268 221 214 244 244 214 210 227 241 244 245 250 256 261 266 270 270 270 268 267 264 262 260 259 258 257 256 254 252 251 249 247 246 243 241 240 240 239 240 240 240 240 241 241 241 242 243 243 242 244 245 244 245 246 245 247 245 240 239
131 100 17 289 161 151 126 160 168 168 51 159 184 171 162 208 222 201 221 228 214 237 256 226 237 247 230 232 232 215 232 252 237 213 212 232 237 237 247 254 260 268 272 274 273 272 272 272 270 268 266 266 264 262 259 255 253 253 252 250 246 243 241 240 240 239 238 239 239 239 241 242 242 243 243 243 244 245 244 245 245 245 247 245 239 236
135 120 138 289 353 146 152 176 179 171 88 296 180 174 197 237 218 203 210 226 224 233 265 259 245 247 227 219 229 232 229 242 252 234 213 227 235 233 243 257 267 275 279 278 275 273 272 272 271 269 265 262 261 261 260 257 254 254 254 252 250 246 242 240 239 238 237 237 236 237 240 242 243 243 243 244 245 245 245 245 246 247 246 242 238 236
149 132 134 137 304 174 176 197 190 179 170 178 184 185 195 199 210 232 215 218 244 239 258 271 259 256 220 195 211 221 227 233 244 255 240 230 236 239 267 287 285 286 285 277 272 269 270 270 270 269 263 257 254 254 255 254 252 251 252 252 251 248 244 240 238 237 237 237 236 237 240 242 243 244 244 245 245 245 247 246 246 246 244 240 237 235
156 139 131 144 187 184 176 186 186 185 182 184 190 189 186 180 174 198 210 209 215 233 244 263 269 264 161 154 186 195 217 232 241 263 261 247 257 276 296 303 293 290 289 285 281 275 271 269 268 267 263 257 252 251 251 251 250 250 251 251 250 249 246 242 239 239 239 238 237 238 240 241 242 243 244 244 244 245 245 245 246 244 241 239 236 234
101 112 130 145 164 152 89 55 51 43 194 196 208 203 191 189 193 201 213 198 190 225 249 283 282 273 134 149 170 163 187 220 248 270 266 262 266 268 285 295 289 285 287 288 289 285 280 277 274 272 269 263 258 254 253 252 250 251 252 251 250 247 244 240 238 239 239 238 238 239 241 242 243 243 243 244 244 244 243 244 244 241 239 238 235 234
98 108 127 125 104 54 51 63 48 20 267 202 212 212 201 201 205 209 230 197 193 216 215 236 261 252 133 147 156 128 131 141 246 248 250 259 268 270 279 288 288 286 297 309 313 312 304 296 289 285 282 278 273 267 261 257 255 255 255 255 252 247 241 237 236 238 238 238 239 241 243 244 245 246 245 245 244 242 241 242 241 240 239 236 234 233
152 138 135 130 135 136 116 151 181 211 228 210 205 207 204 205 205 197 22 254 223 220 204 214 249 248 137 125 127 110 136 206 238 239 243 256 268 275 276 275 283 314 9 21 17 12 357 341 324 307 298 293 288 281 272 263 258 256 254 252 250 245 241 238 238 240 241 242 243 245 247 248 249 249 249 248 246 243 241 241 241 240 238 234 233 232
153 157 151 145 161 174 181 191 188 185 200 201 199 203 204 207 206 195 196 226 224 219 206 216 252 257 142 133 180 167 182 219 228 221 243 262 260 258 246 197 101 72 62 50 36 26 17 9 358 338 318 303 294 286 274 264 258 253 247 245 245 244 243 244 245 247 248 249 249 250 251 251 252 251 250 249 247 244 242 241 241 240 238 236 233 230
122 168 172 168 176 178 156 142 122 119 137 170 191 198 194 200 211 207 206 225 225 226 224 229 245 252 230 184 183 182 198 215 211 183 206 239 243 227 199 160 114 85 62 42 27 17 13 11 4 352 332 309 295 287 276 266 259 253 249 248 248 250 251 252 253 254 254 253 253 252 251 251 251 251 250 249 247 245 242 241 240 239 238 236 232 230
123 181 182 180 183 178 145 143 139 139 155 175 183 186 183 182 198 204 208 222 222 220 236 233 234 247 250 226 196 195 200 206 208 198 200 206 209 209 201 183 160 38 16 18 14 9 9 9 4 356 341 320 302 290 281 274 266 259 257 256 256 258 259 258 258 257 256 255 253 253 252 251 251 250 249 248 246 245 242 240 238 238 238 236 233 234
141 189 186 179 173 164 162 163 158 159 170 179 181 185 186 185 193 202 213 223 216 208 233 235 226 240 250 238 219 219 212 209 208 197 190 182 193 221 245 263 277 288 294 319 353 5 9 7 3 358 350 340 328 311 294 284 276 270 266 263 263 265 265 264 263 260 259 258 256 254 252 250 250 249 248 246 244 243 242 239 237 235 234 235 234 234
168 186 176 172 159 149 167 165 163 171 175 180 187 190 188 189 196 204 216 225 220 219 237 240 234 245 251 244 236 234 225 221 196 162 183 198 211 246 273 277 277 279 279 288 309 329 340 347 352 354 351 343 337 329 316 301 288 279 274 270 268 269 269 267 265 263 263 263 261 259 256 252 251 249 248 246 243 242 242 240 238 235 232 230 228 231
190 177 158 165 156 143 179 166 166 177 178 181 190 192 190 193 200 209 219 224 217 225 239 242 249 261 261 242 242 243 229 221 191 167 212 226 238 256 265 269 272 275 277 282 287 294 303 310 321 337 342 335 326 318 310 306 300 288 279 275 274 274 272 269 266 265 265 264 262 260 256 254 252 249 247 244 241 239 239 238 236 233 230 226 225 232
189 172 157 166 176 184 183 171 171 173 171 180 191 193 194 198 204 210 217 215 205 219 234 238 244 256 257 176 230 243 227 219 219 228 244 249 251 257 260 265 271 275 278 281 281 282 287 290 296 311 323 326 321 312 300 293 291 286 279 275 274 273 271 268 266 265 264 263 261 258 255 252 249 246 244 240 234 233 233 230 226 223 224 225 228 235
183 175 161 172 183 176 163 165 161 142 141 198 203 197 198 201 206 211 216 215 212 217 225 226 231 241 223 117 214 232 205 210 227 236 246 252 253 256 259 263 270 276 278 280 280 280 284 285 288 296 306 312 313 310 303 290 281 277 274 269 265 262 261 261 261 261 261 261 260 258 254 249 247 243 238 231 225 224 222 219 218 220 222 225 229 233
181 181 172 173 171 148 147 143 129 142 199 221 208 197 199 201 201 206 213 213 213 217 223 229 235 234 176 146 206 221 205 210 225 233 238 244 248 252 256 258 262 269 272 276 279 282 288 289 289 294 300 303 303 303 302 294 282 274 270 266 261 257 255 255 256 256 256 257 258 257 254 249 246 241 233 226 223 223 221 219 221 224 224 225 226 226
175 177 174 171 146 137 144 136 148 204 219 212 163 181 195 199 200 209 220 215 210 215 223 234 242 235 220 225 228 226 225 221 228 236 237 238 242 247 251 252 254 258 264 271 278 284 289 291 291 293 294 298 299 296 294 291 284 275 269 265 261 258 255 255 255 254 253 253 254 256 256 252 248 242 232 225 223 225 225 223 223 225 224 224 226 226
171 169 166 155 130 138 150 161 190 219 219 179 138 167 177 190 198 207 225 224 215 215 218 229 239 236 237 248 244 236 240 238 241 246 243 239 241 245 248 251 253 256 260 266 275 281 285 288 289 287 287 293 297 290 282 280 280 276 271 267 263 260 257 256 256 255 253 252 252 255 257 255 251 245 235 227 224 227 230 227 225 225 225 225 225 223
172 164 151 143 147 155 165 188 215 266 266 226 223 186 171 186 195 196 219 231 216 213 218 226 235 236 235 245 247 245 246 247 251 252 248 246 246 246 247 251 256 259 263 266 271 274 278 281 282 281 283 288 290 282 268 265 270 272 271 271 267 263 260 258 258 257 256 254 252 252 253 253 251 247 239 231 226 227 231 231 229 229 229 228 225 223
169 163 156 157 164 158 162 185 219 244 243 232 214 188 177 182 179 173 211 244 210 201 212 221 229 229 227 238 245 241 236 239 252 252 249 250 251 250 251 254 257 262 266 268 270 271 274 276 277 278 279 279 280 272 258 254 261 264 267 270 269 265 261 259 258 257 256 255 253 251 250 250 251 249 245 239 232 231 233 233 232 232 232 231 230 231
174 167 163 159 149 158 171 186 201 216 238 233 174 165 162 150 130 124 200 250 207 185 201 212 216 218 219 231 235 224 198 229 251 251 236 244 251 253 255 258 261 265 267 267 270 272 273 274 273 274 274 271 269 262 253 251 254 257 260 264 265 264 260 257 256 255 254 254 253 252 251 251 252 252 249 245 240 238 239 238 236 234 234 234 235 237
189 181 179 177 178 179 183 200 211 223 244 201 150 155 153 145 132 129 212 244 185 176 194 201 204 213 218 225 228 211 188 227 239 156 136 232 253 261 262 264 265 265 267 269 273 274 273 272 270 269 269 265 260 255 252 251 251 253 257 259 260 261 258 256 255 251 249 250 250 251 252 251 252 253 252 248 243 240 239 239 238 238 238 239 241 243
189 189 189 191 194 189 192 207 222 241 223 179 166 156 148 143 145 170 211 212 158 179 193 191 196 211 216 219 219 208 222 235 239 246 258 263 268 265 266 268 265 268 275 277 276 273 271 271 269 266 265 261 255 253 252 252 251 253 256 256 255 256 255 253 250 246 244 244 244 244 245 245 248 250 249 247 245 241 240 240 240 242 244 245 248 249
175 183 194 207 201 195 203 216 239 264 198 166 160 154 150 149 180 201 172 134 147 168 181 183 195 210 213 214 214 218 233 241 244 250 255 259 260 257 259 263 265 273 278 272 267 266 265 266 264 260 259 256 252 251 250 249 249 250 250 249 248 248 247 245 242 239 236 236 235 235 235 236 239 242 241 241 242 241 242 243 243 245 246 246 247 248
173 172 189 206 193 192 213 210 227 262 189 154 146 156 164 168 166 144 126 133 160 162 164 178 195 206 208 213 218 225 237 244 243 246 247 248 252 253 256 263 268 271 266 254 251 251 247 246 244 242 243 242 241 243 242 240 241 240 240 240 239 239 238 236 235 234 231 230 231 231 233 235 238 240 241 241 242 243 245 246 247 248 247 245 244 244
179 180 188 199 187 189 206 203 215 297 157 154 151 157 185 186 139 139 137 147 166 166 167 175 188 196 202 211 217 223 234 237 235 238 238 240 248 252 257 261 255 243 234 224 224 224 214 214 218 220 225 229 230 232 232 231 232 232 232 234 234 235 235 232 231 231 228 228 230 230 233 238 240 242 244 243 243 244 245 246 247 248 248 246 245 244
194 191 185 200 198 199 203 197 228 80 154 165 167 165 175 183 160 151 157 160 164 170 173 177 184 189 194 206 215 221 230 231 230 233 232 236 245 245 243 236 218 211 215 219 221 216 208 212 216 215 221 226 226 228 229 227 227 227 226 228 226 223 220 213 211 212 210 213 217 218 224 231 234 239 242 242 243 245 245 246 247 247 248 248 246 246
196 194 204 340 210 219 233 178 199 155 159 168 173 173 180 188 176 163 168 166 167 177 184 185 190 191 193 206 217 221 225 226 228 232 230 231 234 227 218 213 210 217 229 224 215 209 205 210 214 213 218 222 222 223 223 221 222 219 213 206 196 186 179 175 175 176 178 184 190 198 209 220 227 236 241 244 248 249 248 250 249 249 250 250 249 249
203 201 209 199 177 208 222 182 160 166 170 173 175 177 185 192 184 174 178 179 182 192 196 194 198 200 206 218 220 215 214 210 209 214 214 213 214 211 208 210 215 221 222 209 200 199 202 208 209 206 209 209 206 205 202 200 197 189 179 170 163 158 156 156 158 160 163 169 179 189 202 215 223 233 241 246 251 253 254 255 254 254 255 254 254 254
196 189 197 203 187 194 223 170 157 171 182 184 184 182 188 194 192 186 189 192 195 198 199 204 214 214 215 218 208 199 196 191 188 191 192 195 199 198 199 203 207 206 199 192 192 198 203 208 208 205 203 198 191 184 178 174 170 164 160 157 153 154 156 158 163 168 171 178 189 198 208 217 223 231 237 241 247 251 254 256 257 259 260 260 260 260
134 162 189 203 196 202 255 189 160 171 190 198 197 191 191 196 197 195 196 198 199 201 203 212 222 218 211 203 195 193 193 188 185 185 186 187 188 188 189 189 187 186 187 188 193 200 204 206 206 202 196 187 179 172 167 164 162 160 159 160 162 165 170 175 180 185 188 194 203 209 214 220 225 229 233 236 241 246 250 254 257 260 261 261 259 259
142 182 193 186 197 217 223 188 170 169 190 204 201 196 194 198 202 204 203 204 207 208 210 216 217 208 198 193 192 195 195 189 184 185 187 186 184 184 184 182 180 183 187 190 195 199 200 200 197 194 189 182 176 173 170 168 168 168 170 174 179 182 187 192 196 198 203 206 211 216 222 225 228 231 232 235 240 243 247 251 253 257 261 261 259 258
188 196 187 188 213 224 178 165 175 183 179 189 196 199 197 199 205 208 210 213 217 215 214 217 212 201 193 193 196 197 196 192 187 185 186 186 186 186 185 184 185 187 188 191 195 197 197 196 193 191 188 184 181 180 179 179 180 182 185 189 193 196 200 206 209 211 215 218 221 227 233 236 240 242 242 243 245 247 250 253 253 257 263 264 263 262
Height
1519 1524 1524 1521 1521 1523 1524 1527 1529 1528 1527 1530 1532 1531 1529 1531 1532 1532 1535 1537 1539 1542 1539 1535 1533 1529 1528 1526 1524 1525 1525 1525 1526 1526 1527 1527 1528 1528 1527 1528 1528 1529 1531 1532 1533 1533 1533 1535 1537 1538 1540 1541 1542 1544 1545 1546 1547 1548 1549 1550 1552 1554 1555 1556 1557 1558 1559 1561 1562 1563 1564 1565 1566 1567 1568 1568 1569 1570 1570 1571 1572 1572 1573 1574 1574 1575
1519 1519 1515 1513 1516 1519 1521 1523 1525 1526 1527 1528 1528 1528 1529 1528 1527 1528 1533 1535 1538 1542 1538 1533 1531 1527 1526 1525 1522 1522 1522 1521 1522 1522 1523 1524 1525 1525 1524 1525 1525 1526 1528 1529 1530 1530 1531 1532 1534 1535 1537 1538 1539 1541 1542 1543 1544 1546 1546 1547 1549 1550 1552 1552 1554 1555 1556 1558 1559 1560 1561 1562 1563 1564 1566 1566 1567 1568 1568 1569 1570 1570 1571 1572 1572 1573
1520 1514 1509 1512 1514 1516 1519 1520 1522 1525 1527 1527 1526 1528 1530 1528 1527 1529 1532 1534 1537 1540 1536 1532 1531 1526 1522 1521 1520 1520 1518 1517 1517 1518 1519 1520 1521 1522 1522 1522 1523 1524 1525 1526 1526 1527 1528 1530 1531 1532 1533 1535 1536 1538 1539 1540 1541 1543 1543 1544 1545 1546 1548 1549 1550 1552 1553 1555 1556 1558 1559 1560 1561 1562 1563 1564 1565 1566 1566 1567 1567 1568 1569 1570 1570 1571
1516 1510 1508 1512 1514 1515 1518 1518 1521 1524 1527 1527 1526 1529 1531 1528 1529 1531 1531 1533 1536 1536 1534 1532 1531 1525 1519 1517 1515 1515 1515 1513 1514 1514 1515 1517 1518 1518 1519 1520 1520 1521 1521 1522 1523 1523 1525 1527 1527 1528 1530 1531 1533 1534 1536 1537 1538 1539 1540 1541 1542 1543 1544 1546 1547 1549 1551 1553 1554 1556 1557 1558 1559 1560 1561 1562 1563 1563 1563 1564 1565 1566 1567 1568 1568 1569
1508 1506 1508 1513 1514 1515 1518 1519 1521 1526 1528 1528 1527 1528 1528 1526 1528 1530 1530 1533 1533 1533 1532 1533 1534 1522 1513 1513 1508 1506 1509 1509 1509 1510 1510 1511 1513 1515 1516 1517 1517 1517 1518 1519 1519 1520 1521 1523 1524 1525 1527 1528 1529 1530 1531 1533 1534 1535 1536 1538 1539 1540 1542 1543 1544 1546 1548 1550 1552 1553 1554 1555 1555 1557 1557 1558 1559 1560 1560 1561 1562 1563 1564 1565 1566 1567
1505 1505 1507 1512 1514 1515 1519 1519 1520 1524 1526 1528 1528 1526 1525 1525 1526 1530 1532 1534 1536 1534 1529 1533 1538 1520 1502 1503 1502 1499 1501 1501 1502 1504 1504 1507 1509 1511 1512 1513 1514 1514 1515 1516 1517 1518 1518 1519 1521 1522 1524 1525 1525 1527 1528 1530 1531 1532 1533 1535 1536 1538 1539 1540 1541 1543 1546 1546 1548 1549 1549 1550 1551 1552 1552 1554 1555 1556 1557 1558 1559 1560 1562 1563 1564 1564
1503 1503 1505 1509 1513 1516 1519 1518 1518 1520 1524 1527 1525 1524 1526 1525 1527 1531 1533 1536 1539 1535 1528 1532 1540 1525 1505 1501 1499 1496 1496 1495 1496 1497 1499 1503 1504 1506 1508 1508 1510 1511 1511 1513 1514 1515 1515 1516 1517 1518 1519 1520 1521 1523 1525 1527 1528 1529 1531 1532 1533 1535 1536 1537 1538 1540 1542 1543 1544 1545 1546 1546 1547 1548 1548 1550 1552 1553 1554 1555 1556 1557 1559 1560 1561 1562
1497 1501 1503 1506 1511 1515 1517 1516 1514 1517 1523 1525 1521 1523 1526 1526 1530 1532 1533 1537 1536 1533 1531 1530 1534 1534 1519 1504 1496 1495 1495 1493 1492 1493 1494 1498 1499 1501 1503 1503 1505 1507 1508 1509 1510 1511 1512 1512 1513 1514 1515 1517 1518 1520 1521 1523 1524 1526 1527 1529 1530 1532 1532 1534 1535 1536 1538 1539 1540 1541 1542 1543 1543 1544 1546 1548 1549 1550 1551 1552 1553 1554 1555 1557 1558 1559
1492 1497 1500 1502 1509 1512 1512 1511 1512 1516 1522 1523 1521 1523 1525 1527 1530 1530 1533 1537 1537 1541 1541 1529 1529 1537 1522 1502 1495 1494 1495 1495 1491 1491 1492 1493 1495 1496 1497 1499 1500 1502 1504 1505 1506 1507 1508 1509 1509 1511 1512 1513 1515 1516 1517 1519 1521 1522 1524 1526 1527 1528 1529 1530 1532 1533 1533 1535 1536 1538 1538 1539 1540 1541 1543 1545 1546 1547 1548 1549 1551 1552 1553 1554 1555 1556
1492 1494 1497 1500 1506 1508 1508 1509 1511 1514 1518 1521 1522 1523 1525 1528 1530 1533 1535 1539 1545 1550 1545 1531 1529 1534 1519 1498 1495 1496 1495 1495 1491 1489 1489 1489 1491 1492 1492 1495 1495 1497 1499 1500 1502 1503 1504 1505 1506 1507 1509 1510 1511 1512 1514 1515 1517 1518 1519 1522 1523 1524 1526 1527 1528 1529 1530 1531 1532 1534 1534 1535 1536 1538 1540 1542 1542 1543 1545 1546 1548 1549 1550 1551 1552 1553
1491 1493 1497 1499 1501 1503 1505 1508 1510 1514 1516 1519 1523 1526 1531 1533 1534 1538 1538 1543 1553 1549 1539 1530 1525 1532 1525 1499 1489 1491 1489 1488 1488 1486 1486 1484 1485 1487 1488 1489 1491 1492 1494 1496 1498 1499 1501 1502 1503 1504 1505 1506 1507 1508 1510 1511 1513 1514 1515 1517 1519 1520 1522 1523 1524 1526 1527 1528 1528 1529 1531 1532 1533 1534 1536 1537 1538 1539 1540 1542 1544 1546 1547 1547 1548 1550
1493 1496 1497 1496 1498 1499 1503 1509 1513 1515 1516 1519 1524 1527 1537 1542 1542 1546 1545 1548 1555 1544 1532 1527 1522 1531 1528 1500 1484 1485 1482 1482 1484 1483 1483 1482 1482 1483 1484 1485 1486 1488 1490 1492 1493 1495 1497 1498 1499 1500 1500 1502 1503 1503 1505 1507 1508 1510 1511 1513 1515 1516 1517 1518 1520 1521 1523 1524 1525 1525 1527 1528 1529 1531 1532 1533 1534 1535 1536 1538 1540 1542 1543 1543 1545 1547
1496 1496 1494 1496 1498 1497 1502 1512 1519 1520 1517 1519 1522 1526 1536 1545 1548 1550 1549 1549 1547 1538 1531 1528 1527 1527 1513 1492 1484 1482 1480 1481 1481 1480 1480 1480 1480 1480 1481 1481 1482 1484 1486 1487 1489 1490 1492 1494 1495 1496 1497 1498 1498 1500 1501 1503 1504 1505 1507 1509 1510 1511 1513 1514 1516 1517 1518 1519 1520 1521 1522 1524 1526 1527 1528 1529 1530 1532 1532 1534 1536 1537 1538 1539 1541 1543
1497 1497 1496 1497 1498 1495 1496 1505 1516 1518 1515 1516 1517 1521 1529 1539 1548 1548 1545 1544 1538 1531 1527 1526 1531 1523 1498 1484 1480 1477 1477 1478 1477 1478 1479 1478 1479 1479 1478 1479 1480 1480 1482 1483 1485 1487 1488 1490 1491 1492 1493 1494 1495 1496 1498 1499 1500 1501 1502 1504 1505 1507 1508 1510 1511 1512 1514 1515 1516 1517 1518 1520 1522 1523 1524 1525 1527 1527 1528 1530 1532 1533 1534 1536 1538 1539
1489 1494 1493 1493 1494 1492 1490 1493 1499 1503 1510 1512 1509 1513 1518 1523 1532 1533 1532 1534 1529 1525 1527 1528 1527 1511 1490 1482 1477 1474 1476 1477 1476 1477 1477 1477 1477 1477 1477 1477 1478 1478 1479 1480 1482 1483 1485 1486 1487 1488 1489 1490 1491 1493 1494 1495 1497 1497 1498 1499 1501 1502 1503 1505 1506 1508 1509 1510 1512 1513 1514 1516 1517 1519 1520 1522 1523 1523 1524 1526 1528 1529 1530 1533 1535 1536
1482 1486 1486 1488 1488 1487 1489 1491 1493 1500 1513 1514 1508 1512 1515 1510 1511 1517 1522 1521 1518 1521 1526 1526 1516 1494 1479 1477 1473 1474 1475 1474 1475 1475 1474 1476 1474 1475 1476 1474 1475 1476 1477 1478 1479 1480 1482 1482 1483 1484 1485 1486 1487 1489 1490 1491 1493 1494 1495 1496 1497 1499 1500 1500 1502 1503 1504 1506 1507 1508 1510 1511 1513 1514 1516 1517 1518 1519 1520 1522 1523 1525 1526 1529 1532 1533
1476 1484 1486 1487 1489 1487 1488 1490 1491 1497 1508 1513 1514 1514 1510 1504 1504 1513 1522 1519 1520 1523 1514 1509 1506 1490 1482 1476 1468 1470 1471 1469 1472 1472 1472 1473 1472 1473 1473 1471 1473 1474 1475 1476 1477 1478 1479 1479 1480 1481 1482 1483 1484 1485 1486 1488 1489 1490 1492 1493 1494 1495 1496 1497 1498 1499 1500 1501 1502 1503 1505 1506 1508 1509 1511 1512 1513 1515 1517 1518 1519 1520 1522 1525 1527 1529
1465 1486 1492 1488 1490 1488 1487 1490 1492 1492 1497 1506 1513 1509 1505 1510 1509 1511 1517 1518 1523 1524 1505 1496 1499 1493 1490 1482 1467 1466 1468 1466 1468 1469 1470 1470 1470 1471 1470 1469 1471 1472 1473 1474 1474 1476 1477 1477 1478 1479 1480 1481 1482 1483 1484 1485 1486 1487 1488 1489 1490 1491 1491 1492 1493 1494 1495 1496 1497 1499 1500 1502 1503 1504 1506 1507 1508 1510 1512 1513 1514 1515 1517 1520 1523 1524
1457 1486 1500 1492 1491 1492 1488 1492 1496 1495 1495 1498 1502 1500 1503 1514 1514 1511 1515 1514 1517 1519 1505 1494 1492 1488 1486 1480 1469 1467 1467 1464 1464 1466 1467 1467 1467 1468 1467 1467 1469 1470 1471 1471 1471 1472 1473 1474 1476 1476 1477 1478 1479 1480 1481 1482 1483 1483 1484 1484 1485 1486 1487 1488 1489 1490 1491 1492 1494 1495 1496 1498 1499 1501 1502 1503 1504 1505 1507 1508 1509 1511 1513 1516 1518 1519
1451 1475 1497 1496 1493 1494 1492 1493 1497 1499 1499 1498 1499 1498 1498 1503 1505 1503 1505 1505 1508 1513 1507 1497 1492 1481 1471 1466 1465 1465 1463 1462 1463 1462 1464 1464 1464 1465 1466 1466 1467 1468 1468 1469 1469 1469 1469 1471 1471 1472 1474 1474 1475 1477 1477 1478 1479 1479 1480 1480 1481 1482 1482 1483 1485 1486 1487 1488 1490 1492 1493 1495 1496 1497 1498 1499 1500 1501 1502 1504 1505 1507 1510 1512 1514 1515
1448 1462 1486 1498 1496 1495 1494 1491 1490 1492 1496 1498 1499 1498 1498 1500 1500 1500 1500 1499 1503 1509 1506 1502 1494 1472 1456 1454 1458 1460 1459 1460 1460 1460 1461 1463 1463 1464 1465 1466 1466 1466 1467 1467 1467 1467 1467 1468 1468 1468 1469 1470 1471 1472 1473 1474 1474 1475 1476 1476 1476 1477 1478 1479 1480 1482 1483 1485 1488 1489 1490 1492 1493 1494 1495 1495 1496 1497 1499 1500 1501 1504 1507 1508 1510 1511
1446 1457 1479 1495 1497 1494 1492 1487 1485 1487 1490 1493 1494 1493 1495 1498 1500 1505 1507 1500 1499 1502 1498 1499 1493 1467 1450 1452 1454 1455 1458 1458 1458 1460 1461 1462 1463 1464 1465 1465 1466 1466 1466 1466 1466 1466 1466 1466 1466 1466 1466 1466 1467 1467 1468 1469 1470 1471 1472 1472 1472 1473 1474 1475 1477 1478 1481 1483 1485 1486 1487 1489 1489 1490 1491 1492 1493 1494 1495 1497 1498 1501 1503 1504 1506 1508
1440 1455 1475 1489 1491 1490 1490 1489 1489 1489 1487 1489 1492 1491 1492 1495 1496 1501 1504 1497 1498 1499 1492 1498 1497 1468 1449 1452 1454 1454 1457 1457 1459 1460 1460 1461 1463 1464 1464 1464 1465 1464 1464 1464 1463 1463 1463 1463 1464 1463 1463 1464 1464 1464 1465 1466 1467 1468 1469 1469 1469 1469 1471 1472 1474 1476 1478 1480 1482 1483 1484 1485 1486 1487 1488 1489 1490 1491 1492 1494 1495 1498 1499 1501 1503 1505
1440 1455 1474 1489 1493 1490 1489 1488 1488 1489 1490 1491 1491 1487 1488 1490 1487 1490 1493 1491 1495 1497 1493 1502 1500 1469 1450 1453 1454 1455 1457 1458 1459 1459 1459 1461 1462 1462 1464 1463 1463 1463 1463 1463 1462 1462 1462 1461 1461 1461 1461 1462 1462 1462 1463 1464 1465 1466 1466 1467 1467 1468 1469 1470 1471 1473 1475 1477 1478 1480 1482 1482 1484 1485 1486 1487 1488 1488 1490 1491 1492 1495 1496 1498 1500 1502
1439 1451 1467 1486 1497 1497 1496 1495 1493 1493 1491 1486 1483 1483 1483 1483 1484 1490 1492 1492 1495 1491 1488 1497 1490 1463 1451 1455 1454 1456 1458 1458 1459 1458 1459 1461 1461 1462 1463 1463 1463 1462 1462 1462 1461 1461 1461 1460 1460 1460 1460 1460 1461 1461 1461 1462 1463 1464 1464 1465 1466 1466 1467 1468 1469 1471 1472 1475 1476 1478 1479 1480 1482 1483 1483 1484 1485 1486 1488 1488 1490 1492 1493 1495 1497 1500
1434 1443 1451 1465 1477 1481 1481 1479 1476 1476 1476 1476 1478 1480 1481 1482 1485 1489 1493 1497 1497 1488 1483 1488 1477 1457 1453 1457 1455 1456 1458 1456 1457 1458 1459 1460 1461 1462 1462 1462 1462 1461 1461 1461 1461 1461 1460 1460 1459 1459 1459 1459 1459 1460 1460 1461 1461 1462 1462 1463 1464 1465 1467 1468 1469 1470 1471 1472 1474 1475 1476 1477 1479 1479 1480 1481 1483 1484 1485 1486 1487 1489 1490 1492 1495 1497
1433 1439 1441 1445 1450 1452 1454 1455 1454 1458 1469 1478 1481 1482 1484 1485 1485 1487 1493 1494 1490 1486 1485 1480 1469 1458 1456 1456 1456 1455 1455 1455 1456 1457 1459 1459 1460 1460 1461 1461 1460 1460 1460 1460 1460 1460 1460 1459 1459 1458 1458 1458 1458 1459 1459 1460 1460 1461 1462 1463 1464 1465 1466 1467 1468 1468 1469 1470 1470 1471 1472 1473 1474 1475 1477 1478 1479 1481 1482 1483 1485 1486 1488 1490 1492 1494
1432 1439 1438 1438 1441 1442 1445 1450 1451 1457 1467 1475 1479 1481 1483 1485 1486 1489 1491 1484 1479 1486 1484 1468 1461 1461 1453 1450 1454 1453 1452 1454 1454 1455 1457 1457 1459 1460 1460 1460 1460 1460 1460 1459 1460 1459 1459 1458 1458 1458 1458 1458 1458 1458 1458 1459 1460 1460 1461 1462 1463 1464 1465 1466 1466 1466 1467 1466 1467 1468 1468 1469 1470 1471 1473 1474 1476 1477 1479 1480 1482 1484 1486 1489 1490 1492
1428 1436 1435 1437 1442 1441 1441 1446 1449 1454 1460 1465 1470 1474 1476 1480 1483 1484 1482 1472 1469 1477 1470 1454 1456 1456 1445 1444 1451 1451 1450 1452 1452 1454 1456 1456 1458 1460 1460 1460 1459 1459 1458 1458 1458 1458 1458 1458 1458 1458 1458 1458 1458 1457 1457 1458 1459 1459 1460 1461 1461 1462 1463 1464 1464 1464 1464 1464 1464 1465 1465 1465 1466 1467 1468 1469 1471 1473 1475 1477 1480 1482 1484 1487 1488 1490
1427 1431 1432 1437 1443 1443 1441 1443 1446 1451 1457 1462 1466 1468 1470 1473 1475 1475 1471 1463 1462 1466 1457 1449 1454 1449 1437 1442 1448 1446 1449 1451 1451 1453 1454 1455 1457 1458 1459 1458 1457 1456 1456 1456 1457 1457 1457 1458 1458 1458 1458 1458 1458 1458 1457 1458 1458 1458 1458 1458 1459 1460 1461 1462 1462 1462 1462 1463 1463 1463 1463 1463 1463 1464 1464 1466 1467 1470 1472 1474 1476 1479 1481 1484 1486 1488
1426 1430 1432 1437 1446 1450 1445 1441 1444 1448 1452 1458 1462 1464 1467 1471 1472 1469 1463 1458 1464 1465 1453 1451 1460 1449 1435 1439 1445 1445 1448 1450 1450 1452 1453 1453 1455 1456 1456 1455 1454 1454 1454 1454 1455 1456 1456 1457 1457 1457 1458 1457 1458 1458 1457 1457 1457 1457 1457 1457 1457 1458 1459 1459 1460 1460 1460 1461 1461 1461 1461 1461 1462 1462 1462 1463 1464 1466 1468 1470 1473 1475 1478 1480 1483 1485
1423 1427 1430 1436 1447 1452 1447 1444 1445 1446 1450 1457 1460 1461 1463 1463 1460 1456 1452 1453 1459 1458 1453 1460 1463 1447 1432 1437 1443 1443 1446 1448 1449 1451 1451 1452 1453 1453 1453 1452 1451 1451 1451 1451 1452 1453 1454 1455 1455 1456 1456 1456 1456 1456 1456 1456 1456 1456 1456 1456 1456 1456 1457 1457 1457 1457 1458 1458 1459 1459 1460 1460 1460 1461 1461 1462 1463 1464 1466 1468 1470 1473 1475 1478 1480 1482
1420 1423 1426 1431 1439 1446 1447 1446 1445 1449 1458 1460 1451 1445 1446 1445 1445 1447 1449 1450 1450 1449 1453 1457 1448 1433 1431 1439 1442 1442 1444 1446 1447 1448 1449 1450 1450 1450 1449 1448 1448 1448 1448 1448 1448 1449 1451 1452 1453 1454 1454 1455 1455 1455 1455 1455 1454 1455 1455 1455 1455 1454 1454 1454 1454 1455 1456 1456 1457 1457 1458 1459 1459 1460 1461 1461 1463 1464 1465 1466 1468 1471 1473 1475 1478 1480
1415 1419 1421 1422 1431 1446 1449 1445 1448 1457 1457 1442 1425 1424 1431 1435 1440 1444 1443 1442 1443 1444 1443 1438 1429 1428 1435 1439 1439 1441 1443 1443 1444 1445 1446 1446 1447 1446 1444 1444 1446 1445 1444 1445 1445 1446 1448 1449 1450 1451 1451 1452 1453 1452 1453 1452 1452 1453 1453 1453 1453 1453 1452 1452 1452 1453 1453 1454 1455 1455 1456 1457 1458 1459 1460 1461 1463 1464 1465 1466 1468 1469 1471 1473 1475 1478
1410 1417 1419 1418 1428 1444 1446 1445 1455 1456 1436 1417 1413 1417 1425 1429 1434 1437 1436 1434 1436 1437 1434 1430 1427 1428 1433 1434 1436 1439 1439 1440 1442 1441 1441 1443 1442 1441 1440 1440 1442 1442 1442 1442 1442 1443 1444 1445 1446 1448 1448 1449 1450 1450 1450 1450 1449 1450 1450 1450 1451 1451 1451 1451 1450 1451 1452 1452 1453 1454 1454 1456 1457 1458 1459 1460 1462 1463 1464 1466 1467 1468 1470 1471 1474 1476
1407 1412 1416 1419 1429 1440 1444 1445 1445 1434 1417 1413 1416 1417 1421 1427 1431 1435 1436 1429 1424 1426 1428 1426 1422 1424 1430 1432 1433 1436 1437 1438 1438 1434 1435 1438 1437 1436 1436 1436 1438 1439 1439 1440 1441 1440 1441 1442 1443 1444 1445 1446 1447 1447 1447 1447 1447 1448 1448 1448 1449 1449 1449 1449 1449 1449 1450 1450 1451 1452 1453 1454 1455 1456 1457 1459 1460 1462 1463 1464 1466 1467 1469 1470 1472 1474
1405 1408 1414 1422 1428 1433 1440 1438 1428 1422 1420 1417 1413 1410 1412 1415 1417 1422 1426 1418 1413 1418 1422 1418 1417 1423 1428 1428 1429 1432 1435 1437 1433 1426 1426 1431 1431 1430 1433 1433 1435 1436 1436 1438 1439 1438 1438 1439 1440 1441 1442 1443 1445 1445 1445 1445 1445 1445 1446 1446 1446 1447 1447 1447 1447 1448 1448 1449 1450 1451 1452 1452 1453 1454 1456 1457 1459 1460 1462 1463 1465 1466 1468 1469 1471 1472
1406 1407 1410 1419 1425 1427 1433 1436 1433 1434 1424 1404 1394 1397 1401 1403 1405 1413 1421 1415 1406 1410 1414 1413 1415 1420 1423 1424 1426 1429 1434 1436 1428 1416 1418 1424 1424 1426 1430 1431 1431 1433 1433 1434 1435 1435 1436 1436 1436 1437 1438 1440 1441 1442 1442 1442 1442 1443 1443 1444 1444 1445 1445 1445 1445 1446 1446 1447 1448 1449 1450 1451 1452 1453 1454 1456 1457 1459 1461 1462 1463 1465 1467 1468 1470 1471
1409 1410 1410 1418 1426 1427 1429 1432 1432 1426 1407 1389 1385 1391 1398 1403 1404 1416 1429 1415 1395 1399 1408 1407 1410 1415 1417 1420 1422 1425 1433 1433 1419 1410 1414 1420 1420 1423 1426 1426 1427 1429 1429 1430 1431 1431 1432 1432 1432 1433 1434 1435 1437 1437 1437 1439 1439 1440 1440 1441 1442 1443 1443 1443 1444 1444 1445 1445 1446 1447 1448 1450 1451 1451 1453 1454 1456 1458 1459 1461 1462 1464 1465 1467 1468 1469
1414 1415 1415 1420 1424 1423 1422 1422 1417 1405 1392 1386 1387 1388 1393 1398 1403 1421 1431 1406 1382 1388 1398 1398 1404 1410 1411 1413 1416 1420 1424 1419 1409 1409 1414 1416 1417 1420 1421 1422 1424 1425 1426 1427 1427 1427 1428 1428 1428 1429 1429 1431 1432 1433 1434 1435 1436 1437 1437 1438 1439 1440 1440 1441 1441 1442 1443 1443 1444 1445 1447 1448 1449 1450 1451 1453 1454 1456 1457 1459 1461 1462 1463 1464 1465 1466
1416 1416 1416 1416 1417 1417 1416 1412 1403 1392 1384 1384 1384 1383 1388 1397 1404 1412 1407 1386 1376 1383 1387 1389 1397 1401 1402 1407 1411 1412 1410 1406 1405 1409 1412 1412 1414 1416 1417 1419 1421 1422 1423 1424 1424 1424 1424 1424 1425 1425 1426 1427 1429 1430 1431 1432 1432 1434 1435 1435 1436 1437 1438 1438 1438 1439 1440 1441 1442 1443 1445 1446 1447 1448 1450 1451 1452 1453 1455 1456 1458 1459 1460 1461 1462 1462
1412 1414 1414 1413 1412 1412 1409 1406 1401 1390 1377 1376 1382 1382 1384 1392 1396 1391 1381 1376 1380 1383 1384 1388 1393 1395 1399 1403 1405 1405 1404 1403 1405 1408 1408 1409 1411 1412 1414 1416 1418 1419 1420 1421 1421 1421 1421 1421 1422 1423 1423 1424 1426 1427 1428 1429 1430 1431 1432 1433 1434 1434 1435 1435 1435 1436 1437 1438 1439 1441 1442 1443 1445 1446 1447 1449 1450 1451 1452 1454 1455 1456 1457 1457 1458 1459
1393 1400 1404 1402 1402 1405 1408 1409 1404 1385 1365 1366 1378 1382 1380 1380 1379 1375 1375 1379 1382 1382 1385 1389 1391 1393 1397 1399 1399 1401 1401 1401 1404 1405 1405 1407 1408 1410 1412 1413 1415 1417 1417 1417 1418 1419 1419 1419 1420 1420 1421 1422 1423 1424 1425 1426 1427 1428 1429 1430 1431 1431 1432 1432 1433 1434 1435 1436 1437 1439 1440 1441 1443 1444 1446 1447 1448 1449 1450 1452 1453 1453 1454 1455 1456 1456
1384 1387 1390 1388 1388 1394 1397 1393 1383 1367 1358 1363 1369 1372 1374 1374 1371 1371 1375 1379 1381 1383 1385 1387 1389 1391 1394 1394 1396 1398 1398 1399 1401 1402 1403 1406 1407 1408 1410 1411 1413 1415 1415 1416 1417 1417 1417 1418 1418 1419 1420 1420 1421 1422 1424 1425 1426 1427 1428 1428 1429 1430 1431 1431 1432 1433 1434 1435 1437 1438 1439 1440 1441 1443 1444 1445 1446 1448 1449 1450 1451 1451 1452 1453 1454 1454
1373 1371 1374 1374 1373 1374 1374 1371 1366 1360 1361 1365 1365 1365 1371 1374 1372 1373 1374 1375 1379 1381 1382 1384 1387 1389 1390 1392 1394 1395 1396 1398 1399 1400 1402 1405 1405 1407 1409 1410 1412 1414 1414 1415 1416 1416 1417 1417 1417 1418 1419 1420 1421 1422 1423 1424 1425 1426 1427 1428 1429 1430 1430 1431 1432 1432 1433 1435 1436 1437 1438 1439 1440 1441 1442 1443 1444 1445 1447 1448 1448 1449 1450 1451 1451 1452
1362 1364 1368 1369 1370 1370 1368 1367 1367 1365 1363 1364 1366 1367 1370 1371 1371 1373 1374 1375 1378 1379 1380 1383 1385 1386 1388 1390 1391 1393 1394 1396 1397 1399 1401 1403 1404 1406 1407 1409 1411 1412 1414 1415 1415 1416 1417 1417 1418 1419 1419 1420 1421 1422 1422 1424 1424 1425 1426 1427 1428 1429 1430 1431 1432 1432 1433 1434 1435 1436 1437 1438 1439 1440 1441 1442 1443 1444 1445 1446 1446 1447 1448 1448 1449 1450
1362 1364 1367 1369 1371 1372 1367 1363 1365 1366 1365 1365 1367 1367 1368 1370 1371 1372 1373 1375 1376 1377 1379 1381 1382 1385 1387 1388 1389 1391 1393 1394 1396 1399 1400 1401 1403 1404 1405 1407 1409 1410 1412 1414 1415 1416 1417 1417 1418 1419 1419 1420 1421 1421 1422 1423 1423 1424 1425 1426 1427 1429 1429 1430 1431 1432 1433 1434 1434 1436 1436 1437 1438 1439 1440 1441 1441 1442 1443 1444 1444 1445 1446 1446 1447 1448
1359 1362 1366 1367 1367 1366 1363 1361 1363 1365 1365 1365 1365 1366 1368 1370 1371 1372 1373 1374 1375 1376 1377 1379 1381 1383 1384 1386 1389 1391 1392 1394 1396 1397 1399 1401 1402 1403 1405 1406 1407 1409 1411 1413 1414 1415 1416 1417 1417 1418 1419 1420 1420 1421 1422 1423 1423 1425 1425 1426 1428 1428 1429 1430 1431 1431 1432 1433 1434 1435 1435 1436 1437 1438 1438 1439 1440 1441 1441 1442 1443 1443 1444 1445 1445 1446
1357 1360 1361 1363 1365 1365 1362 1361 1362 1364 1364 1364 1363 1364 1366 1368 1370 1372 1372 1373 1373 1374 1375 1377 1379 1382 1384 1386 1389 1390 1392 1394 1395 1396 1398 1400 1401 1403 1405 1405 1407 1409 1411 1412 1413 1414 1415 1416 1417 1417 1418 1419 1420 1421 1422 1423 1424 1425 1426 1426 1428 1428 1429 1430 1430 1431 1431 1432 1433 1434 1434 1435 1436 1436 1437 1438 1438 1439 1440 1441 1441 1442 1442 1443 1444 1444
1353 1354 1354 1359 1361 1355 1349 1351 1354 1356 1358 1360 1361 1363 1365 1367 1369 1370 1370 1371 1372 1372 1374 1376 1379 1381 1384 1386 1388 1390 1392 1393 1394 1396 1398 1399 1401 1403 1404 1405 1407 1409 1410 1411 1412 1413 1414 1415 1416 1417 1418 1419 1420 1421 1422 1423 1424 1424 1425 1426 1427 1428 1429 1429 1429 1430 1431 1431 1432 1433 1433 1434 1435 1435 1436 1437 1437 1438 1438 1439 1440 1440 1441 1441 1442 1442
1341 1342 1344 1347 1345 1338 1337 1345 1350 1350 1352 1356 1358 1360 1362 1364 1365 1367 1368 1370 1370 1371 1373 1376 1378 1380 1383 1386 1388 1390 1391 1393 1394 1396 1397 1399 1401 1402 1403 1405 1406 1407 1409 1411 1412 1413 1414 1415 1415 1417 1418 1418 1420 1421 1421 1422 1423 1424 1425 1426 1426 1427 1428 1428 1429 1430 1430 1430 1431 1432 1432 1433 1434 1434 1435 1435 1436 1436 1437 1437 1438 1438 1439 1440 1440 1441